Weather History for Clarksville, TN

Change the Weather History Date:

Sunday, September 29, 2013

  Actual Average Record
Temperature  
Mean Temperature 62 °F -  
Max Temperature 67 °F - 102 °F (1953)
Min Temperature 57 °F - 34 °F (1967)
Degree Days  
Heating Degree Days 3    
Month to date heating degree days 8  
Since 1 July heating degree days 8  
Cooling Degree Days 0    
Month to date cooling degree days 203  
Growing Degree Days 12 (Base 50)    
Moisture  
Dew Point 60 °F    
Average Humidity 87    
Maximum Humidity 100    
Minimum Humidity 73    
Precipitation  
Precipitation 0.14 in - 1.34 in (1987)
Month to date precipitation 4.48  
Sea Level Pressure  
Sea Level Pressure 30.04 in    
Wind  
Wind Speed 3 mph (South)    
Max Wind Speed 13 mph    
Max Gust Speed 16 mph    
Visibility 8 miles    
Events Rain    
T = Trace of Precipitation, MM = Missing Value Source: NWS Daily Summary

Daily Weather History Graph

Daily Weather History Graph

Search for Another Location

Airport:

Trip Planner

Search our weather history database for the weather conditions in past years. The results will help you decide how hot, cold, wet, or windy it might be!

Date:

Astronomy

Sep. 29, 2013 Rise Set
Actual Time 6:43 AM CDT 6:35 PM CDT
Civil Twilight 6:17 AM CDT 7:01 PM CDT
Nautical Twilight 5:47 AM CDT 7:31 PM CDT
Astronomical Twilight 5:17 AM CDT 8:01 PM CDT
Moon 1:31 AM CDT (9/29) 3:25 PM CDT (9/29)
Length of Visible Light 12h 43m
Length of Day
11h 52m
Waning Crescent, 27% of the Moon is Illuminated
Sep 29
Waning Crescent
Oct 4
New
Oct 11
First Quarter
Oct 18
Full
Oct 26
Last Quarter

Hourly Weather History & Observations

Time (CDT) Temp. Dew Point Humidity Pressure Visibility Wind Dir Wind Speed Gust Speed Precip Events Conditions
12:52 AM 59.0 °F 57.0 °F 93% 30.07 in 10.0 mi Calm Calm - N/A   Clear
1:52 AM 57.9 °F 55.9 °F 93% 30.06 in 10.0 mi SE 3.5 mph - N/A   Clear
2:52 AM 57.0 °F 55.0 °F 93% 30.06 in 10.0 mi SE 3.5 mph - N/A   Clear
3:52 AM 57.0 °F 55.0 °F 93% 30.05 in 10.0 mi Calm Calm - N/A   Clear
4:52 AM 57.9 °F 55.9 °F 93% 30.05 in 10.0 mi SE 3.5 mph - N/A   Clear
5:52 AM 60.1 °F 57.0 °F 90% 30.06 in 10.0 mi SSE 3.5 mph - N/A   Partly Cloudy
6:52 AM 61.0 °F 57.0 °F 87% 30.07 in 10.0 mi SSE 3.5 mph - N/A   Overcast
7:52 AM 62.1 °F 57.9 °F 86% 30.08 in 10.0 mi Calm Calm - N/A   Overcast
8:52 AM 64.0 °F 59.0 °F 84% 30.08 in 10.0 mi SSE 4.6 mph - N/A   Overcast
9:52 AM 66.0 °F 57.9 °F 75% 30.08 in 10.0 mi South 4.6 mph - N/A   Overcast
10:52 AM 66.0 °F 59.0 °F 78% 30.08 in 10.0 mi South 6.9 mph - 0.00 in Rain Light Rain
11:52 AM 66.9 °F 59.0 °F 76% 30.09 in 10.0 mi SW 4.6 mph - 0.00 in Rain Light Rain
12:52 PM 66.0 °F 61.0 °F 84% 30.07 in 4.0 mi WNW 3.5 mph - 0.02 in Rain Light Rain
1:52 PM 64.9 °F 61.0 °F 87% 30.05 in 5.0 mi WNW 3.5 mph - 0.03 in Rain Light Rain
2:14 PM 64.4 °F 60.8 °F 88% 30.05 in 2.5 mi Calm Calm - 0.04 in Rain Rain
2:23 PM 64.4 °F 60.8 °F 88% 30.04 in 5.0 mi Calm Calm - 0.04 in Rain Light Rain
2:52 PM 64.9 °F 61.0 °F 87% 30.03 in 4.0 mi Calm Calm - 0.05 in Rain Light Rain
3:52 PM 64.9 °F 63.0 °F 93% 30.03 in 8.0 mi South 5.8 mph - 0.02 in Rain Light Rain
4:47 PM 66.2 °F 62.6 °F 88% 30.03 in 10.0 mi SSW 4.6 mph - 0.02 in   Overcast
4:52 PM 66.0 °F 63.0 °F 90% 30.02 in 10.0 mi SW 4.6 mph - 0.02 in   Overcast
4:59 PM 66.2 °F 62.6 °F 88% 30.03 in 10.0 mi Calm Calm - N/A   Overcast
5:25 PM 66.2 °F 62.6 °F 88% 30.03 in 10.0 mi SSW 4.6 mph - N/A   Overcast
5:52 PM 64.9 °F 62.1 °F 90% 30.01 in 10.0 mi South 4.6 mph - N/A   Overcast
6:52 PM 64.0 °F 62.1 °F 93% 30.01 in 10.0 mi Calm Calm - N/A   Overcast
7:52 PM 64.9 °F 63.0 °F 93% 30.01 in 7.0 mi Calm Calm - N/A   Overcast
8:52 PM 63.0 °F 62.1 °F 97% 30.01 in 4.0 mi Calm Calm - N/A   Overcast
9:52 PM 64.0 °F 62.1 °F 93% 30.01 in 6.0 mi Calm Calm - N/A   Overcast
10:52 PM 64.0 °F 62.1 °F 93% 30.01 in 7.0 mi Calm Calm - N/A   Overcast
11:52 PM 64.0 °F 62.1 °F 93% 30.00 in 5.0 mi ESE 3.5 mph - N/A   Overcast